FW0183 Weather Reports


time (UTC)temp
C
wind
direction
speed
KPH
gust
KPH
rain 1hr
cm
rain 24hr
cm
rain mn
cm
humidity
%
barometer
mb
20260906100001 15 115 1.6 11.3 0.00 1.32 0.36 97 1013.2
20260906094557 15 115 3.2 11.3 0.13 1.32 0.36 97 1013.1
20260906093056 15 119 6.4 9.7 0.36 1.32 0.36 97 1012.8
20260906091541 15 155 0.0 8.0 0.36 1.32 0.36 97 1013.0
20260906090034 15 153 1.6 12.9 0.36 1.32 0.36 97 1012.8
20260906084526 15 253 4.8 14.5 0.23 1.22 0.23 97 1013.1
20260906083023 15 136 0.0 0.0 0.00 0.99 0.00 97 1012.8
20260906081600 15 136 0.0 3.2 0.00 0.99 0.00 97 1013.0
20260906080058 15 136 3.2 6.4 0.00 0.99 0.00 97 1012.9
20260906074548 15 150 0.0 0.0 0.00 0.99 0.99 97 1013.1
20260906073039 15 150 0.0 0.0 0.00 0.99 0.99 97 1013.1
20260906071533 15 151 0.0 8.0 0.00 0.99 0.99 97 1013.5
20260906070028 15 151 4.8 12.9 0.00 0.99 0.99 96 1013.2
20260906064534 15 150 3.2 8.0 0.00 0.99 0.99 96 1013.2
20260906063024 15 49 3.2 6.4 0.00 0.99 0.99 96 1013.4
20260906061506 15 49 0.0 6.4 0.00 0.99 0.99 97 1013.4
20260906060104 15 45 0.0 0.0 0.03 0.99 0.99 97 1013.5
20260906054554 15 47 0.0 0.0 0.03 0.99 0.99 96 1013.7
20260906053047 15 45 0.0 0.0 0.03 0.99 0.99 95 1013.9
20260906051640 16 46 0.0 0.0 0.03 0.99 0.99 96 1014.0
20260906050034 16 45 0.0 0.0 0.00 0.97 0.97 96 1014.0
20260906044533 16 45 0.0 1.6 0.00 0.97 0.97 96 1013.9
20260906043028 15 45 0.0 1.6 0.00 0.97 0.97 96 1013.9
20260906041512 15 48 0.0 3.2 0.00 0.97 0.97 96 1013.4
20260906040002 15 44 0.0 6.4 0.00 0.97 0.97 96 1013.7
20260906034545 16 46 0.0 3.2 0.00 0.97 0.97 95 1013.7
20260906033038 16 46 3.2 4.8 0.00 0.97 0.97 95 1014.2
20260906031532 16 46 0.0 6.4 0.00 0.97 0.97 95 1014.2
20260906030028 16 46 0.0 0.0 0.00 0.97 0.97 93 1014.3
20260906024521 17 46 0.0 1.6 0.00 0.97 0.97 94 1014.3
20260906023016 17 46 0.0 4.8 0.00 0.97 0.97 94 1014.5
20260906021513 17 45 1.6 4.8 0.00 0.97 0.97 94 1014.5
20260906020002 17 46 0.0 4.8 0.00 0.97 0.97 92 1014.5
20260906014646 18 46 0.0 0.0 0.00 0.97 0.97 94 1014.2
20260906013038 18 46 0.0 4.8 0.00 0.97 0.97 92 1014.2
20260906011531 18 46 0.0 9.7 0.00 0.97 0.97 92 1013.9
20260906010028 18 43 0.0 0.0 0.03 0.97 0.97 91 1013.6
20260906004528 19 42 0.0 3.2 0.05 0.97 0.97 90 1013.5
20260906003127 20 42 0.0 0.0 0.05 0.97 0.97 88 1013.4
20260906001621 20 42 0.0 4.8 0.05 0.97 0.97 87 1013.2
20260906000117 20 44 6.4 17.7 0.03 0.94 0.94 85 1013.4
20260905234551 21 297 1.6 6.4 0.00 0.91 0.91 78 1013.2
20260905233104 21 360 0.0 8.0 0.00 0.91 0.91 77 1013.0
20260905231528 22 277 3.2 6.4 0.00 0.91 0.91 76 1013.0
20260905230027 22 360 1.6 9.7 0.00 0.91 0.91 74 1013.2
20260905224527 23 360 3.2 9.7 0.00 0.91 0.91 70 1013.2
20260905223125 25 261 8.0 16.1 0.00 0.91 0.91 67 1013.3
20260905221531 25 360 3.2 8.0 0.00 0.91 0.91 66 1013.3
20260905220012 25 293 0.0 8.0 0.00 0.91 0.91 65 1013.1
20260905214505 26 314 3.2 8.0 0.00 2.26 0.91 63 1013.0
20260905213059 25 265 1.6 11.3 0.00 2.26 0.91 65 1012.9
20260905211542 25 335 1.6 9.7 0.00 2.26 0.91 64 1013.0
20260905210036 26 360 0.0 4.8 0.00 2.26 0.91 62 1012.7
20260905204529 25 82 0.0 8.0 0.00 2.26 0.91 63 1012.7
20260905203027 25 360 0.0 19.3 0.00 2.26 0.91 67 1012.6
20260905201527 25 214 3.2 12.9 0.00 2.26 0.91 68 1012.6
20260905200017 25 338 3.2 9.7 0.00 2.26 0.91 70 1012.6
20260905194611 23 340 6.4 17.7 0.00 2.26 0.91 73 1012.7
20260905193009 23 348 4.8 14.5 0.00 2.26 0.91 72 1012.8
20260905191701 23 36 8.0 19.3 0.00 2.26 0.91 68 1013.0
20260905190057 23 310 6.4 24.1 0.00 2.26 0.91 64 1013.1
20260905184532 23 320 6.4 25.7 0.00 2.26 0.91 66 1013.3
20260905183023 22 153 0.0 4.8 0.00 2.26 0.91 79 1013.6
20260905181516 21 151 0.0 1.6 0.00 2.26 0.91 82 1013.8
20260905180010 20 151 1.6 6.4 0.00 2.26 0.91 85 1014.1
20260905174505 19 157 0.0 8.0 0.00 2.26 0.91 86 1014.0
20260905173154 18 155 0.0 3.2 0.05 2.26 0.91 89 1014.2
20260905171547 18 157 0.0 8.0 0.15 2.26 0.91 91 1014.5
20260905170025 17 76 0.0 1.6 0.89 2.26 0.91 93 1015.0
20260905164518 17 91 6.4 19.3 0.89 2.26 0.91 92 1015.5
20260905163012 17 279 8.0 20.9 0.81 2.18 0.84 91 1016.2
20260905161504 18 184 16.1 41.8 0.71 2.08 0.71 86 1016.7
20260905160042 20 336 0.0 6.4 0.00 1.37 0.03 84 1016.3
20260905154537 21 295 3.2 14.5 0.00 1.37 0.03 83 1016.1
20260905153029 21 78 9.7 19.3 0.00 1.37 0.03 82 1015.8
20260905151527 24 61 6.4 16.1 0.00 1.37 0.03 76 1015.5
20260905150025 25 355 4.8 22.5 0.00 1.37 0.03 74 1014.9
20260905144516 25 255 9.7 20.9 0.00 1.37 0.03 75 1014.8
20260905143006 24 360 8.0 22.5 0.00 1.37 0.03 78 1014.3
20260905141619 23 291 4.8 17.7 0.00 1.37 0.03 82 1014.7
20260905140034 22 265 4.8 19.3 0.00 1.37 0.03 87 1014.9
20260905134527 21 284 6.4 14.5 0.00 1.37 0.03 98 1015.0
20260905133019 20 74 0.0 0.0 0.00 1.37 0.03 98 1015.2
20260905131513 19 71 0.0 0.0 0.00 1.37 0.03 98 1015.1
20260905124551 17 71 0.0 0.0 0.00 1.37 0.03 98 1015.6
20260905123042 15 71 0.0 0.0 0.00 1.37 0.03 98 1015.6
20260905121531 15 72 0.0 4.8 0.00 1.37 0.03 98 1015.5
20260905120006 14 73 1.6 6.4 0.00 1.37 0.03 97 1015.4
20260905114557 14 69 1.6 4.8 0.00 1.37 0.03 97 1015.5
20260905113100 13 69 0.0 3.2 0.00 1.37 0.03 97 1015.4
20260905111553 13 68 1.6 4.8 0.00 1.37 0.03 97 1015.2
20260905110038 13 68 0.0 3.2 0.00 1.37 0.03 97 1015.1
20260905104531 13 69 0.0 0.0 0.00 1.37 0.03 97 1015.0
20260905103031 13 69 0.0 0.0 0.00 1.37 0.03 97 1015.0
20260905101531 13 69 0.0 0.0 0.00 1.37 0.03 97 1014.9